Change the Weather History Date:

Wednesday, October 2, 2013

  Actual Average Record
Temperature  
Mean Temperature 57 °F -  
Max Temperature 64 °F 73 °F 88 °F (1992)
Min Temperature 51 °F 43 °F 31 °F (1950)
Degree Days  
Heating Degree Days 8    
Growing Degree Days 7 (Base 50)    
Moisture  
Dew Point 40 °F    
Average Humidity 59    
Maximum Humidity 83    
Minimum Humidity 43    
Precipitation  
Precipitation 0.21 in - - ()
Sea Level Pressure  
Sea Level Pressure 29.83 in    
Wind  
Wind Speed 6 mph (WSW)    
Max Wind Speed 9 mph    
Max Gust Speed -    
Visibility 10 miles    
Events Rain    
Averages and records for this station are not official NWS values.
T = Trace of Precipitation, MM = Missing Value Source: NWS Daily Summary

Daily Weather History Graph

Daily Weather History Graph

Search for Another Location

Airport or City:

Trip Planner

Search our weather history database for the weather conditions in past years. The results will help you decide how hot, cold, wet, or windy it might be!

Date:

Astronomy

Oct. 02, 2013 Rise Set
Actual Time 7:26 AM MDT 7:07 PM MDT
Civil Twilight 6:58 AM MDT 7:35 PM MDT
Nautical Twilight 6:26 AM MDT 8:07 PM MDT
Astronomical Twilight 5:54 AM MDT 8:39 PM MDT
Moon 5:01 AM MDT (10/2) 5:46 PM MDT (10/2)
Length of Visible Light 12h 36m
Length of Day
11h 41m
Waning Crescent, 6% of the Moon is Illuminated
Oct 2
Waning Crescent
Oct 4
New
Oct 11
First Quarter
Oct 18
Full
Oct 26
Last Quarter

Hourly Weather History & Observations

Time (MDT) Temp. Dew Point Humidity Pressure Visibility Wind Dir Wind Speed Gust Speed Precip Events Conditions
12:53 AM 57.9 °F 37.9 °F 47% 29.83 in 10.0 mi NNW 6.9 mph - N/A   Clear
1:53 AM 54.0 °F 37.9 °F 55% 29.85 in 10.0 mi NW 8.1 mph - N/A   Clear
2:53 AM 52.0 °F 37.0 °F 57% 29.87 in 10.0 mi NW 8.1 mph - N/A   Clear
3:53 AM 51.1 °F 37.0 °F 59% 29.86 in 10.0 mi West 6.9 mph - N/A   Clear
4:53 AM 51.1 °F 37.9 °F 61% 29.87 in 10.0 mi WSW 3.5 mph - N/A   Clear
5:53 AM 51.1 °F 37.0 °F 59% 29.88 in 10.0 mi SW 3.5 mph - N/A   Clear
6:53 AM 51.1 °F 37.0 °F 59% 29.89 in 10.0 mi South 4.6 mph - N/A   Clear
7:53 AM 53.1 °F 36.0 °F 52% 29.90 in 10.0 mi Calm Calm - N/A   Clear
8:53 AM 54.0 °F 37.0 °F 53% 29.91 in 10.0 mi Calm Calm - N/A   Clear
9:53 AM 55.0 °F 37.9 °F 53% 29.91 in 10.0 mi NNW 5.8 mph - N/A   Partly Cloudy
10:53 AM 57.9 °F 37.9 °F 47% 29.89 in 10.0 mi SSE 5.8 mph - N/A   Partly Cloudy
11:53 AM 61.0 °F 39.0 °F 44% 29.86 in 10.0 mi Calm Calm - N/A   Scattered Clouds
12:53 PM 63.0 °F 39.9 °F 43% 29.84 in 10.0 mi SSW 6.9 mph - N/A   Partly Cloudy
1:53 PM 63.0 °F 39.9 °F 43% 29.82 in 10.0 mi Variable 3.5 mph - N/A   Scattered Clouds
2:53 PM 62.1 °F 39.9 °F 44% 29.80 in 10.0 mi WNW 6.9 mph - N/A   Mostly Cloudy
3:53 PM 61.0 °F 39.9 °F 46% 29.79 in 10.0 mi West 3.5 mph - N/A   Overcast
4:53 PM 61.0 °F 39.0 °F 44% 29.78 in 10.0 mi NW 5.8 mph - N/A   Mostly Cloudy
5:53 PM 57.0 °F 44.1 °F 62% 29.81 in 9.0 mi NNW 8.1 mph - 0.00 in Rain Light Rain
6:53 PM 54.0 °F 46.9 °F 77% 29.82 in 9.0 mi East 8.1 mph - 0.07 in Rain Light Rain
7:53 PM 52.0 °F 46.9 °F 83% 29.82 in 6.0 mi NE 8.1 mph - 0.07 in Rain Light Rain
8:53 PM 52.0 °F 46.9 °F 83% 29.80 in 9.0 mi SE 8.1 mph - 0.07 in Rain Light Rain
9:53 PM 52.0 °F 46.9 °F 83% 29.74 in 10.0 mi SSE 5.8 mph - 0.00 in   Mostly Cloudy
10:53 PM 52.0 °F 46.0 °F 80% 29.74 in 10.0 mi South 8.1 mph - N/A   Mostly Cloudy
11:53 PM 52.0 °F 44.1 °F 74% 29.72 in 10.0 mi SSE 9.2 mph - N/A   Clear